Weather History for Baker, MT

Change the Weather History Date:

Saturday, July 6, 2013

  Actual Average Record
Temperature  
Mean Temperature 70 °F -  
Max Temperature 82 °F 98 °F 99 °F (2002)
Min Temperature 59 °F 62 °F 44 °F (1999)
Cooling Degree Days 6    
Growing Degree Days 20 (Base 50)    
Moisture  
Dew Point 57 °F    
Average Humidity 72    
Maximum Humidity 94    
Minimum Humidity 36    
Precipitation  
Precipitation 0.00 in - - ()
Sea Level Pressure  
Sea Level Pressure 29.82 in    
Wind  
Wind Speed 5 mph (NE)    
Max Wind Speed 14 mph    
Max Gust Speed 21 mph    
Visibility 8 miles    
Events Fog    
Averages and records for this station are not official NWS values.
T = Trace of Precipitation, MM = Missing Value Source: NWS Daily Summary

Daily Weather History Graph

Daily Weather History Graph

Search for Another Location

Airport:

Trip Planner

Search our weather history database for the weather conditions in past years. The results will help you decide how hot, cold, wet, or windy it might be!

Date:

Astronomy

Jul. 06, 2013 Rise Set
Actual Time 5:12 AM MDT 8:51 PM MDT
Civil Twilight 4:33 AM MDT 9:29 PM MDT
Nautical Twilight 3:42 AM MDT 10:20 PM MDT
Astronomical Twilight 2:32 AM MDT 11:29 PM MDT
Moon 4:03 AM MDT (7/6) 7:30 PM MDT (7/6)
Length of Visible Light 16h 55m
Length of Day
15h 38m
Waning Crescent, 2% of the Moon is Illuminated
Jul 6
Waning Crescent
Jul 8
New
Jul 15
First Quarter
Jul 22
Full
Jul 29
Last Quarter

Hourly Weather History & Observations

Time (MDT) Temp. Heat Index Dew Point Humidity Pressure Visibility Wind Dir Wind Speed Gust Speed Precip Events Conditions
12:51 AM 64.0 °F - 60.1 °F 87% 29.72 in 10.0 mi East 5.8 mph - N/A   Clear
1:51 AM 63.0 °F - 60.1 °F 90% 29.72 in 10.0 mi ESE 4.6 mph - N/A   Clear
2:51 AM 61.0 °F - 57.9 °F 90% 29.72 in 8.0 mi SE 5.8 mph - N/A   Clear
3:51 AM 60.1 °F - 57.0 °F 90% 29.72 in 6.0 mi SE 3.5 mph - N/A   Clear
4:01 AM 59.0 °F - 55.4 °F 88% 29.80 in 5.0 mi SE 4.6 mph - N/A   Scattered Clouds
4:06 AM 60.8 °F - 57.2 °F 88% 29.80 in 1.8 mi SE 4.6 mph - N/A   Mostly Cloudy
4:12 AM 60.8 °F - 57.2 °F 88% 29.80 in 0.2 mi ESE 4.6 mph - N/A Fog Fog
4:51 AM 61.0 °F - 57.9 °F 90% 29.75 in 0.2 mi East 4.6 mph - 0.00 in Fog Fog
5:51 AM 61.0 °F - 57.9 °F 90% 29.76 in 0.5 mi SE 4.6 mph - 0.00 in Fog Fog
6:06 AM 60.8 °F - 59.0 °F 94% 29.82 in 2.0 mi ESE 3.5 mph - N/A   Mostly Cloudy
6:11 AM 60.8 °F - 59.0 °F 94% 29.83 in 6.0 mi Calm Calm - N/A   Mostly Cloudy
6:23 AM 62.6 °F - 59.0 °F 88% 29.83 in 8.0 mi Calm Calm - N/A   Scattered Clouds
6:51 AM 62.1 °F - 60.1 °F 93% 29.78 in 8.0 mi Calm Calm - N/A   Clear
7:02 AM 62.6 °F - 60.8 °F 94% 29.84 in 9.0 mi Calm Calm - N/A   Partly Cloudy
7:22 AM 62.6 °F - 60.8 °F 94% 29.85 in 7.0 mi Calm Calm - N/A   Mostly Cloudy
7:27 AM 62.6 °F - 60.8 °F 94% 29.85 in 7.0 mi Calm Calm - N/A   Scattered Clouds
7:51 AM 64.0 °F - 62.1 °F 93% 29.80 in 9.0 mi Calm Calm - N/A   Partly Cloudy
8:51 AM 69.1 °F - 61.0 °F 75% 29.80 in 10.0 mi NW 3.5 mph - N/A   Clear
9:51 AM 75.0 °F - 60.1 °F 60% 29.80 in 10.0 mi NNW 10.4 mph - N/A   Clear
10:51 AM 75.0 °F - 62.1 °F 64% 29.83 in 10.0 mi WNW 13.8 mph 17.3 mph N/A   Scattered Clouds
11:51 AM 77.0 °F - 60.1 °F 56% 29.83 in 10.0 mi WNW 8.1 mph - N/A   Clear
12:51 PM 79.0 °F - 57.9 °F 48% 29.83 in 10.0 mi NW 13.8 mph - N/A   Clear
1:51 PM 81.0 °F 81.0 °F 57.0 °F 44% 29.84 in 10.0 mi NNW 10.4 mph - N/A   Clear
2:51 PM 81.0 °F 80.7 °F 55.0 °F 41% 29.85 in 10.0 mi NW 10.4 mph 20.7 mph N/A   Partly Cloudy
3:51 PM 82.0 °F 81.3 °F 54.0 °F 38% 29.85 in 10.0 mi NW 13.8 mph 18.4 mph N/A   Clear
4:51 PM 81.0 °F 80.4 °F 53.1 °F 38% 29.86 in 10.0 mi NNW 13.8 mph 18.4 mph N/A   Clear
5:51 PM 80.1 °F - 51.1 °F 36% 29.85 in 10.0 mi NNW 6.9 mph - N/A   Clear
6:51 PM 78.1 °F - 51.1 °F 39% 29.86 in 10.0 mi North 12.7 mph - N/A   Clear
7:51 PM 75.0 °F - 52.0 °F 44% 29.88 in 10.0 mi North 8.1 mph - N/A   Clear
8:51 PM 69.1 °F - 55.0 °F 61% 29.88 in 10.0 mi NNE 6.9 mph - N/A   Clear
9:51 PM 66.0 °F - 53.1 °F 63% 29.91 in 10.0 mi ENE 4.6 mph - N/A   Clear
10:51 PM 64.0 °F - 53.1 °F 67% 29.91 in 10.0 mi ENE 5.8 mph - N/A   Clear
11:51 PM 63.0 °F - 51.1 °F 65% 29.92 in 10.0 mi Calm Calm - N/A   Clear